Total_Precipitation_Accumulation
1.19 1.15 1.04 0.90 0.84 0.88 0.88 0.95 1.07 1.16 1.22 1.33 1.35 1.37 1.38 1.27 1.06 0.86 0.73 0.76 0.85 1.05 1.31 1.25 1.52 1.65 1.62 1.58 1.62 1.62 1.48 1.37 1.50 1.26 0.83 0.50 0.28 0.21 0.18 0.25 0.33 0.42 0.56
1.38 1.34 1.30 1.23 1.04 0.99 1.07 1.29 1.43 1.59 1.61 1.77 1.87 1.86 1.81 1.54 1.34 1.14 1.03 1.04 1.18 1.28 1.37 1.57 1.75 1.88 1.82 1.71 1.72 1.73 1.55 1.36 1.67 1.61 1.34 0.89 0.56 0.41 0.28 0.32 0.35 0.44 0.65
0.88 1.16 1.29 1.44 1.33 1.24 1.25 1.41 1.66 1.83 1.91 2.08 2.22 2.17 2.21 2.00 1.78 1.61 1.44 1.32 1.38 1.40 1.58 1.79 2.00 2.04 1.98 1.85 1.85 1.86 1.75 1.51 1.57 1.74 1.78 1.43 1.04 0.76 0.44 0.42 0.46 0.52 0.63
0.63 0.91 1.07 1.17 1.42 1.46 1.42 1.56 1.74 1.93 2.11 2.32 2.37 2.35 2.35 2.19 2.06 1.95 1.57 1.40 1.39 1.48 1.60 1.67 1.80 1.94 1.96 1.89 1.80 1.80 1.76 1.65 1.45 1.61 1.75 1.71 1.50 1.22 0.75 0.51 0.48 0.55 0.60
0.65 0.81 0.95 1.12 1.20 1.22 1.41 1.71 1.93 2.11 2.21 2.26 2.22 2.27 2.22 2.22 2.22 2.06 1.82 1.68 1.63 1.60 1.50 1.57 1.77 1.84 1.89 1.79 1.69 1.70 1.75 1.66 1.50 1.53 1.57 1.62 1.62 1.51 1.25 0.83 0.71 0.63 0.56
0.72 0.86 0.99 1.14 1.19 1.27 1.51 1.78 1.93 2.01 2.05 2.08 2.16 2.21 2.17 2.18 2.14 1.98 1.92 1.78 1.70 1.54 1.47 1.50 1.60 1.67 1.71 1.65 1.62 1.61 1.60 1.60 1.54 1.49 1.55 1.60 1.53 1.58 1.57 1.15 0.90 0.76 0.48
0.93 1.01 1.08 1.11 1.20 1.33 1.47 1.57 1.67 1.72 1.73 1.77 1.89 1.93 1.93 1.89 1.84 1.81 1.77 1.67 1.57 1.40 1.32 1.32 1.27 1.27 1.33 1.46 1.57 1.52 1.50 1.50 1.47 1.42 1.43 1.51 1.50 1.56 1.59 1.39 1.09 0.87 0.57
1.23 1.36 1.36 1.31 1.27 1.27 1.27 1.28 1.33 1.36 1.37 1.44 1.52 1.51 1.51 1.51 1.50 1.51 1.50 1.47 1.39 1.32 1.26 1.16 1.06 1.00 1.03 1.17 1.40 1.48 1.48 1.47 1.39 1.28 1.29 1.27 1.22 1.25 1.33 1.42 1.31 0.99 0.78
0.97 1.23 1.25 1.18 1.13 1.08 1.03 1.02 1.00 0.94 0.92 0.95 0.98 1.02 1.04 1.09 1.11 1.12 1.15 1.15 1.12 1.06 1.01 0.97 0.94 0.95 0.92 0.93 1.05 1.22 1.33 1.40 1.35 1.30 1.24 1.18 1.12 1.07 1.06 1.21 1.30 1.18 1.01
0.78 0.81 0.85 0.89 0.91 0.91 0.88 0.83 0.76 0.72 0.72 0.70 0.69 0.69 0.69 0.70 0.72 0.71 0.70 0.74 0.76 0.76 0.76 0.78 0.81 0.84 0.85 0.85 0.94 1.06 1.20 1.26 1.24 1.17 1.13 1.11 1.03 1.02 0.95 0.94 1.07 1.18 1.23
0.56 0.55 0.56 0.60 0.70 0.78 0.75 0.69 0.65 0.62 0.58 0.56 0.54 0.50 0.50 0.51 0.51 0.50 0.51 0.54 0.57 0.56 0.60 0.64 0.65 0.65 0.66 0.68 0.73 0.81 0.90 0.99 1.03 0.96 0.91 0.92 0.92 0.96 0.82 0.82 0.92 1.04 1.19
0.36 0.37 0.40 0.43 0.47 0.51 0.52 0.52 0.51 0.54 0.51 0.46 0.41 0.39 0.39 0.38 0.39 0.41 0.44 0.48 0.52 0.55 0.62 0.67 0.69 0.64 0.62 0.60 0.59 0.61 0.72 0.85 0.93 1.01 1.03 0.98 0.98 0.99 0.85 0.84 0.95 1.12 1.26
0.32 0.31 0.32 0.35 0.38 0.41 0.45 0.46 0.50 0.53 0.49 0.44 0.43 0.44 0.43 0.42 0.40 0.40 0.41 0.43 0.43 0.47 0.55 0.64 0.71 0.69 0.66 0.63 0.60 0.58 0.58 0.65 0.77 0.87 1.02 1.09 1.13 1.15 1.05 0.96 1.05 1.21 1.40
0.32 0.34 0.34 0.35 0.40 0.49 0.52 0.53 0.57 0.54 0.49 0.46 0.45 0.43 0.42 0.40 0.40 0.40 0.41 0.41 0.40 0.43 0.46 0.48 0.56 0.60 0.62 0.65 0.63 0.60 0.61 0.61 0.61 0.62 0.62 0.67 0.76 0.84 0.94 0.94 0.97 1.06 1.27
0.26 0.27 0.30 0.34 0.40 0.46 0.51 0.53 0.57 0.54 0.54 0.55 0.54 0.48 0.47 0.50 0.43 0.40 0.46 0.42 0.37 0.37 0.38 0.35 0.39 0.45 0.48 0.53 0.55 0.51 0.48 0.51 0.57 0.55 0.48 0.45 0.44 0.47 0.52 0.57 0.69 0.79 0.94
0.25 0.26 0.31 0.36 0.36 0.40 0.44 0.47 0.49 0.51 0.54 0.59 0.62 0.56 0.52 0.50 0.48 0.41 0.39 0.36 0.33 0.31 0.30 0.31 0.30 0.34 0.36 0.41 0.43 0.41 0.37 0.32 0.35 0.39 0.41 0.39 0.36 0.31 0.32 0.36 0.42 0.49 0.62
0.19 0.21 0.25 0.29 0.29 0.32 0.44 0.47 0.43 0.44 0.51 0.59 0.66 0.71 0.64 0.57 0.49 0.41 0.37 0.34 0.34 0.34 0.35 0.33 0.29 0.24 0.23 0.29 0.32 0.36 0.33 0.28 0.23 0.23 0.26 0.26 0.27 0.25 0.19 0.22 0.25 0.26 0.27
0.13 0.18 0.19 0.17 0.17 0.19 0.27 0.37 0.44 0.46 0.55 0.64 0.67 0.73 0.66 0.56 0.46 0.40 0.37 0.36 0.34 0.32 0.32 0.34 0.35 0.30 0.22 0.21 0.20 0.24 0.29 0.30 0.26 0.22 0.18 0.16 0.16 0.18 0.17 0.14 0.15 0.15 0.14
0.09 0.14 0.17 0.15 0.17 0.18 0.20 0.27 0.36 0.46 0.59 0.66 0.70 0.69 0.65 0.56 0.49 0.43 0.40 0.35 0.31 0.28 0.23 0.21 0.24 0.27 0.25 0.22 0.19 0.16 0.17 0.18 0.18 0.17 0.16 0.13 0.11 0.13 0.12 0.12 0.13 0.12 0.10
0.16 0.22 0.26 0.30 0.30 0.32 0.29 0.33 0.38 0.46 0.55 0.61 0.63 0.64 0.66 0.64 0.62 0.54 0.45 0.38 0.35 0.31 0.28 0.24 0.22 0.19 0.18 0.17 0.15 0.13 0.12 0.11 0.11 0.12 0.12 0.11 0.09 0.07 0.06 0.06 0.09 0.10 0.08
0.19 0.27 0.36 0.49 0.56 0.61 0.57 0.54 0.52 0.54 0.57 0.56 0.56 0.59 0.60 0.61 0.60 0.57 0.52 0.48 0.44 0.42 0.40 0.33 0.29 0.25 0.20 0.14 0.10 0.08 0.07 0.06 0.07 0.08 0.08 0.07 0.06 0.05 0.04 0.03 0.03 0.03 0.02
0.12 0.19 0.34 0.45 0.54 0.66 0.78 0.83 0.77 0.67 0.65 0.59 0.59 0.59 0.62 0.61 0.60 0.62 0.59 0.55 0.55 0.54 0.51 0.45 0.39 0.33 0.26 0.17 0.10 0.06 0.04 0.03 0.04 0.05 0.03 0.03 0.02 0.02 0.02 0.01 0.01 0.00 0.01
0.10 0.14 0.24 0.36 0.41 0.46 0.61 0.80 0.79 0.74 0.73 0.71 0.70 0.67 0.65 0.72 0.75 0.75 0.70 0.66 0.62 0.61 0.59 0.55 0.49 0.41 0.32 0.23 0.14 0.07 0.03 0.02 0.03 0.03 0.02 0.01 0.01 0.01 0.01 0.01 0.00 0.00 0.00
0.13 0.16 0.23 0.30 0.35 0.43 0.54 0.66 0.65 0.63 0.72 0.80 0.82 0.77 0.75 0.79 0.84 0.88 0.81 0.77 0.75 0.70 0.67 0.66 0.61 0.53 0.41 0.31 0.21 0.12 0.06 0.04 0.03 0.02 0.03 0.02 0.02 0.02 0.01 0.01 0.00 0.00 0.00
0.21 0.22 0.26 0.30 0.36 0.44 0.52 0.56 0.57 0.62 0.72 0.77 0.76 0.76 0.78 0.82 0.88 0.89 0.86 0.80 0.77 0.72 0.73 0.71 0.63 0.56 0.45 0.33 0.24 0.17 0.11 0.08 0.06 0.04 0.04 0.04 0.04 0.03 0.03 0.02 0.02 0.01 0.01
0.15 0.15 0.18 0.22 0.25 0.30 0.37 0.43 0.48 0.59 0.73 0.77 0.77 0.73 0.70 0.74 0.78 0.80 0.77 0.70 0.69 0.63 0.59 0.60 0.56 0.49 0.39 0.30 0.22 0.14 0.11 0.09 0.08 0.07 0.07 0.06 0.05 0.05 0.04 0.04 0.04 0.03 0.03